"read_dt","SO2 (ppb)","flags","PMT voltage (V)","lamp voltage (V)","lamp intensity (Hz)","internal temp (C)","react chamber temp (C)","sample flow (l/min)","pres (mmHg)","SO2 bkg (ppb)","SO2 coefficient"
2015-07-27 00:00:00,1628E-3,5C000000,-0724,0823,12285,026.0,045.4,0.479,737.7,01.18,0.508
2015-07-27 00:01:00,1690E-3,5C000000,-0724,0822,12338,026.1,045.4,0.479,737.7,01.18,0.508
2015-07-27 00:02:00,1704E-3,5C000000,-0724,0822,12378,026.0,045.4,0.480,737.7,01.18,0.508
2015-07-27 00:03:00,1651E-3,5C000000,-0724,0822,12141,026.0,045.4,0.479,737.7,01.18,0.508
2015-07-27 00:04:00,1659E-3,5C000000,-0724,0823,12403,026.0,045.4,0.479,737.7,01.18,0.508
2015-07-27 00:05:00,1688E-3,5C000000,-0724,0823,12253,026.0,045.4,0.479,737.7,01.18,0.508
2015-07-27 00:06:00,1761E-3,5C000000,-0724,0823,12217,026.0,045.4,0.479,737.8,01.18,0.508
2015-07-27 00:07:00,1678E-3,5C000000,-0724,0822,12280,026.0,045.4,0.479,737.7,01.18,0.508
2015-07-27 00:08:00,1625E-3,5C000000,-0724,0823,12151,026.0,045.4,0.479,737.7,01.18,0.508
2015-07-27 00:09:00,1654E-3,5C000000,-0724,0823,12254,026.0,045.4,0.479,737.7,01.18,0.508
2015-07-27 00:10:00,1676E-3,5C000000,-0724,0822,12262,026.0,045.4,0.479,737.8,01.18,0.508
2015-07-27 00:11:00,1632E-3,5C000000,-0724,0823,12102,026.0,045.4,0.479,737.7,01.18,0.508
2015-07-27 00:12:00,1572E-3,5C000000,-0724,0822,12317,026.0,045.4,0.480,737.7,01.18,0.508
2015-07-27 00:13:00,1640E-3,5C000000,-0724,0823,12182,026.0,045.4,0.479,737.7,01.18,0.508
2015-07-27 00:14:00,1674E-3,5C000000,-0724,0822,12249,026.1,045.4,0.479,737.7,01.18,0.508
2015-07-27 00:15:00,1566E-3,5C000000,-0724,0822,12197,026.0,045.4,0.480,737.7,01.18,0.508
2015-07-27 00:16:00,1509E-3,5C000000,-0724,0823,12263,026.0,045.4,0.479,737.7,01.18,0.508
2015-07-27 00:17:00,1579E-3,5C000000,-0724,0823,12366,026.0,045.4,0.479,737.7,01.18,0.508
2015-07-27 00:18:00,1634E-3,5C000000,-0724,0822,12339,026.0,045.4,0.480,737.7,01.18,0.508
2015-07-27 00:19:00,1581E-3,5C000000,-0724,0822,12024,026.0,045.4,0.479,737.8,01.18,0.508
2015-07-27 00:20:00,1684E-3,5C000000,-0724,0823,12203,026.0,045.4,0.479,737.8,01.18,0.508
2015-07-27 00:21:00,1625E-3,5C000000,-0724,0822,12259,026.0,045.4,0.479,737.8,01.18,0.508
2015-07-27 00:22:00,1675E-3,5C000000,-0724,0823,12314,026.0,045.4,0.479,737.8,01.18,0.508
2015-07-27 00:23:00,1636E-3,5C000000,-0724,0822,12338,026.1,045.4,0.479,737.8,01.18,0.508
2015-07-27 00:24:00,1734E-3,5C000000,-0724,0821,12351,026.1,045.4,0.480,737.8,01.18,0.508
2015-07-27 00:25:00,1700E-3,5C000000,-0724,0822,12135,026.0,045.4,0.479,737.8,01.18,0.508
2015-07-27 00:26:00,1638E-3,5C000000,-0724,0824,12299,026.1,045.4,0.479,737.9,01.18,0.508
2015-07-27 00:27:00,1659E-3,5C000000,-0724,0823,12232,026.0,045.4,0.479,737.8,01.18,0.508
2015-07-27 00:28:00,1719E-3,5C000000,-0724,0822,12268,026.1,045.4,0.480,737.8,01.18,0.508
2015-07-27 00:29:00,1776E-3,5C000000,-0724,0822,12361,026.0,045.4,0.479,737.8,01.18,0.508
2015-07-27 00:30:00,1670E-3,5C000000,-0724,0823,12196,026.0,045.4,0.479,737.8,01.18,0.508
2015-07-27 00:31:00,1626E-3,5C000000,-0724,0822,12166,026.0,045.4,0.480,737.7,01.18,0.508
2015-07-27 00:32:00,1704E-3,5C000000,-0724,0822,12237,026.0,045.4,0.479,737.8,01.18,0.508
2015-07-27 00:33:00,1616E-3,5C000000,-0724,0822,12255,026.0,045.4,0.479,737.8,01.18,0.508
2015-07-27 00:34:00,1665E-3,5C000000,-0724,0822,12225,026.0,045.4,0.480,737.7,01.18,0.508
2015-07-27 00:35:00,1651E-3,5C000000,-0724,0823,12337,026.0,045.4,0.479,737.7,01.18,0.508
2015-07-27 00:36:00,1601E-3,5C000000,-0724,0822,12290,026.0,045.4,0.479,737.7,01.18,0.508
2015-07-27 00:37:00,1848E-3,5C000000,-0724,0822,12240,026.0,045.4,0.479,737.6,01.18,0.508
2015-07-27 00:38:00,1554E-3,5C000000,-0724,0822,12274,026.0,045.4,0.479,737.7,01.18,0.508
2015-07-27 00:39:00,1649E-3,5C000000,-0724,0822,12224,026.0,045.4,0.479,737.7,01.18,0.508
2015-07-27 00:40:00,1640E-3,5C000000,-0724,0822,12181,026.0,045.4,0.480,737.6,01.18,0.508
2015-07-27 00:41:00,1720E-3,5C000000,-0724,0822,12338,026.0,045.4,0.479,737.7,01.18,0.508
2015-07-27 00:42:00,1685E-3,5C000000,-0724,0822,12371,026.0,045.4,0.479,737.7,01.18,0.508
2015-07-27 00:43:00,1696E-3,5C000000,-0724,0822,12312,026.0,045.4,0.480,737.7,01.18,0.508
2015-07-27 00:44:00,1621E-3,5C000000,-0724,0821,12263,026.0,045.4,0.479,737.7,01.18,0.508
2015-07-27 00:45:00,1720E-3,5C000000,-0724,0822,12229,026.0,045.4,0.479,737.7,01.18,0.508
2015-07-27 00:46:00,1541E-3,5C000000,-0724,0822,12274,026.0,045.4,0.479,737.7,01.18,0.508
2015-07-27 00:47:00,1708E-3,5C000000,-0724,0823,12198,026.0,045.4,0.479,737.7,01.18,0.508
2015-07-27 00:48:00,1653E-3,5C000000,-0724,0822,12269,026.0,045.4,0.479,737.6,01.18,0.508
2015-07-27 00:49:00,1616E-3,5C000000,-0724,0821,12254,026.0,045.4,0.479,737.7,01.18,0.508
2015-07-27 00:50:00,1652E-3,5C000000,-0724,0822,12217,026.0,045.4,0.479,737.7,01.18,0.508
2015-07-27 00:51:00,1701E-3,5C000000,-0724,0822,12408,026.0,045.4,0.479,737.7,01.18,0.508
2015-07-27 00:52:00,1653E-3,5C000000,-0724,0823,12109,026.0,045.4,0.479,737.7,01.18,0.508
2015-07-27 00:53:00,1556E-3,5C000000,-0724,0822,12264,026.0,045.4,0.479,737.6,01.18,0.508
2015-07-27 00:54:00,1621E-3,5C000000,-0724,0822,12330,026.0,045.4,0.479,737.7,01.18,0.508
2015-07-27 00:55:00,1572E-3,5C000000,-0724,0823,12239,026.0,045.4,0.480,737.7,01.18,0.508
2015-07-27 00:56:00,1650E-3,5C000000,-0724,0823,12357,026.0,045.4,0.479,737.8,01.18,0.508
2015-07-27 00:57:00,1526E-3,5C000000,-0724,0823,12350,026.0,045.4,0.479,737.8,01.18,0.508
2015-07-27 00:58:00,1753E-3,5C000000,-0724,0822,12193,026.0,045.4,0.479,737.8,01.18,0.508
2015-07-27 00:59:00,1513E-3,5C000000,-0724,0822,12153,026.0,045.4,0.479,737.9,01.18,0.508
2015-07-27 01:00:00,1604E-3,5C000000,-0724,0822,12180,026.0,045.4,0.479,737.9,01.18,0.508
2015-07-27 01:01:00,1684E-3,5C000000,-0724,0823,12292,026.0,045.4,0.480,737.9,01.18,0.508
2015-07-27 01:02:00,1716E-3,5C000000,-0724,0823,12263,026.0,045.4,0.480,737.9,01.18,0.508
2015-07-27 01:03:00,1519E-3,5C000000,-0724,0822,12193,026.0,045.4,0.479,737.9,01.18,0.508
2015-07-27 01:04:00,1673E-3,5C000000,-0724,0822,12274,026.0,045.4,0.479,737.9,01.18,0.508
2015-07-27 01:05:00,1806E-3,5C000000,-0724,0822,12360,026.0,045.4,0.480,737.9,01.18,0.508
2015-07-27 01:06:00,1797E-3,5C000000,-0724,0823,12141,026.0,045.4,0.479,737.9,01.18,0.508
2015-07-27 01:07:00,1701E-3,5C000000,-0724,0822,12278,026.0,045.4,0.479,737.9,01.18,0.508
2015-07-27 01:08:00,1750E-3,5C000000,-0724,0823,12225,026.0,045.4,0.480,738.0,01.18,0.508
2015-07-27 01:09:00,1526E-3,5C000000,-0724,0822,12272,026.0,045.4,0.479,738.0,01.18,0.508
2015-07-27 01:10:00,1654E-3,5C000000,-0724,0822,12178,026.0,045.4,0.479,738.0,01.18,0.508
2015-07-27 01:11:00,1633E-3,5C000000,-0724,0822,12247,026.0,045.4,0.480,737.9,01.18,0.508
2015-07-27 01:12:00,1652E-3,5C000000,-0724,0822,12129,026.0,045.4,0.479,737.9,01.18,0.508
2015-07-27 01:13:00,1553E-3,5C000000,-0724,0822,12306,026.0,045.4,0.479,738.0,01.18,0.508
2015-07-27 01:14:00,1710E-3,5C000000,-0724,0823,12228,026.0,045.4,0.480,737.9,01.18,0.508
2015-07-27 01:15:00,1609E-3,5C000000,-0724,0822,12376,026.0,045.4,0.479,737.9,01.18,0.508
2015-07-27 01:16:00,1668E-3,5C000000,-0724,0822,12210,026.0,045.4,0.479,737.9,01.18,0.508
2015-07-27 01:17:00,1712E-3,5C000000,-0724,0823,12313,026.0,045.4,0.480,737.9,01.18,0.508
2015-07-27 01:18:00,1681E-3,5C000000,-0724,0824,12321,026.0,045.4,0.479,737.9,01.18,0.508
2015-07-27 01:19:00,1665E-3,5C000000,-0724,0822,12214,026.0,045.4,0.479,737.9,01.18,0.508
2015-07-27 01:20:00,1649E-3,5C000000,-0724,0822,12325,026.0,045.4,0.480,737.9,01.18,0.508
2015-07-27 01:21:00,1815E-3,5C000000,-0724,0823,12093,026.0,045.4,0.479,737.9,01.18,0.508
2015-07-27 01:22:00,1611E-3,5C000000,-0724,0822,12330,026.0,045.4,0.479,737.9,01.18,0.508
2015-07-27 01:23:00,1802E-3,5C000000,-0724,0823,12382,026.0,045.4,0.480,737.8,01.18,0.508
2015-07-27 01:24:00,1643E-3,5C000000,-0724,0822,12064,026.0,045.4,0.479,737.9,01.18,0.508
2015-07-27 01:25:00,1696E-3,5C000000,-0724,0822,12208,026.0,045.4,0.479,737.9,01.18,0.508
2015-07-27 01:26:00,1595E-3,5C000000,-0724,0822,12255,026.0,045.4,0.480,737.9,01.18,0.508
2015-07-27 01:27:00,1749E-3,5C000000,-0724,0823,12340,026.0,045.4,0.479,737.9,01.18,0.508
2015-07-27 01:28:00,1623E-3,5C000000,-0724,0822,12248,026.0,045.4,0.479,737.9,01.18,0.508
2015-07-27 01:29:00,1563E-3,5C000000,-0724,0822,12263,026.0,045.4,0.480,737.9,01.18,0.508
2015-07-27 01:30:00,1618E-3,5C000000,-0724,0822,12219,026.0,045.4,0.479,737.9,01.18,0.508
2015-07-27 01:31:00,1581E-3,5C000000,-0724,0822,12241,026.0,045.4,0.479,737.9,01.18,0.508
2015-07-27 01:32:00,1621E-3,5C000000,-0724,0822,12217,026.0,045.4,0.480,737.9,01.18,0.508
2015-07-27 01:33:00,1694E-3,5C000000,-0724,0822,12283,026.0,045.4,0.479,737.9,01.18,0.508
2015-07-27 01:34:00,1719E-3,5C000000,-0724,0822,12176,026.0,045.4,0.479,737.9,01.18,0.508
2015-07-27 01:35:00,1607E-3,5C000000,-0724,0823,12203,026.0,045.4,0.480,737.9,01.18,0.508
2015-07-27 01:36:00,1659E-3,5C000000,-0724,0822,12436,026.0,045.4,0.479,737.9,01.18,0.508
2015-07-27 01:37:00,1593E-3,5C000000,-0724,0822,12332,026.0,045.4,0.479,737.8,01.18,0.508
2015-07-27 01:38:00,1652E-3,5C000000,-0724,0822,12318,026.0,045.4,0.480,737.9,01.18,0.508
2015-07-27 01:39:00,1695E-3,5C000000,-0724,0822,12131,026.0,045.4,0.479,737.8,01.18,0.508
2015-07-27 01:40:00,1614E-3,5C000000,-0724,0821,12338,026.0,045.4,0.479,737.9,01.18,0.508
2015-07-27 01:41:00,1624E-3,5C000000,-0724,0822,12322,026.0,045.4,0.480,737.8,01.18,0.508
2015-07-27 01:42:00,1737E-3,5C000000,-0724,0822,12386,026.0,045.4,0.479,737.9,01.18,0.508
2015-07-27 01:43:00,1684E-3,5C000000,-0724,0822,12277,026.0,045.4,0.479,737.9,01.18,0.508
2015-07-27 01:44:00,1484E-3,5C000000,-0724,0822,12252,026.0,045.4,0.480,737.9,01.18,0.508
2015-07-27 01:45:00,1688E-3,5C000000,-0724,0823,12297,026.0,045.4,0.479,737.9,01.18,0.508
2015-07-27 01:46:00,1671E-3,5C000000,-0724,0822,12315,026.0,045.4,0.479,737.9,01.18,0.508
2015-07-27 01:47:00,1761E-3,5C000000,-0724,0822,12277,026.0,045.4,0.480,737.8,01.18,0.508
2015-07-27 01:48:00,1697E-3,5C000000,-0724,0823,12159,026.0,045.4,0.479,737.8,01.18,0.508
2015-07-27 01:49:00,1574E-3,5C000000,-0724,0823,12244,026.0,045.4,0.479,737.8,01.18,0.508
2015-07-27 01:50:00,1667E-3,5C000000,-0724,0822,12276,026.0,045.4,0.480,737.8,01.18,0.508
2015-07-27 01:51:00,1523E-3,5C000000,-0724,0822,12270,026.0,045.4,0.479,737.8,01.18,0.508
2015-07-27 01:52:00,1659E-3,5C000000,-0724,0822,12322,026.0,045.4,0.479,737.8,01.18,0.508
2015-07-27 01:53:00,1659E-3,5C000000,-0724,0823,12039,026.0,045.4,0.480,737.8,01.18,0.508
2015-07-27 01:54:00,1704E-3,5C000000,-0724,0822,12237,026.0,045.4,0.479,737.8,01.18,0.508
2015-07-27 01:55:00,1544E-3,5C000000,-0724,0822,12105,026.0,045.4,0.479,737.8,01.18,0.508
2015-07-27 01:56:00,1755E-3,5C000000,-0724,0823,12294,026.0,045.4,0.480,737.9,01.18,0.508
2015-07-27 01:57:00,1577E-3,5C000000,-0724,0823,12320,026.0,045.4,0.479,737.8,01.18,0.508
2015-07-27 01:58:00,1605E-3,5C000000,-0724,0823,12433,026.0,045.4,0.479,737.8,01.18,0.508
2015-07-27 01:59:00,1674E-3,5C000000,-0724,0823,12271,026.0,045.4,0.480,737.9,01.18,0.508
2015-07-27 02:00:00,1562E-3,5C000000,-0724,0822,12230,026.0,045.4,0.479,737.8,01.18,0.508
2015-07-27 02:01:00,1641E-3,5C000000,-0724,0822,12206,026.0,045.4,0.479,737.9,01.18,0.508
2015-07-27 02:02:00,1638E-3,5C000000,-0724,0822,12148,026.0,045.4,0.480,737.8,01.18,0.508
2015-07-27 02:03:00,1753E-3,5C000000,-0724,0823,12216,026.0,045.4,0.479,737.9,01.18,0.508
2015-07-27 02:04:00,1675E-3,5C000000,-0724,0822,12307,026.0,045.4,0.479,737.8,01.18,0.508
2015-07-27 02:05:00,1624E-3,5C000000,-0724,0823,12215,026.0,045.4,0.480,737.9,01.18,0.508
2015-07-27 02:06:00,1607E-3,5C000000,-0724,0823,12230,026.0,045.4,0.479,737.9,01.18,0.508
2015-07-27 02:07:00,1628E-3,5C000000,-0724,0822,12102,026.0,045.4,0.479,737.9,01.18,0.508
2015-07-27 02:08:00,1706E-3,5C000000,-0724,0822,12354,026.0,045.4,0.480,737.9,01.18,0.508
2015-07-27 02:09:00,1656E-3,5C000000,-0724,0822,12257,026.0,045.4,0.479,737.9,01.18,0.508
2015-07-27 02:10:00,1659E-3,5C000000,-0724,0822,12254,026.0,045.4,0.479,737.9,01.18,0.508
2015-07-27 02:11:00,1676E-3,5C000000,-0724,0822,12267,026.0,045.4,0.480,737.9,01.18,0.508
2015-07-27 02:12:00,1715E-3,5C000000,-0724,0823,12220,026.0,045.4,0.480,737.9,01.18,0.508
2015-07-27 02:13:00,1683E-3,5C000000,-0724,0823,12207,026.0,045.4,0.479,737.9,01.18,0.508
2015-07-27 02:14:00,1746E-3,5C000000,-0724,0822,12108,026.0,045.4,0.479,737.9,01.18,0.508
2015-07-27 02:15:00,1602E-3,5C000000,-0724,0822,12086,026.0,045.4,0.480,737.9,01.18,0.508
2015-07-27 02:16:00,1665E-3,5C000000,-0724,0823,12177,026.0,045.4,0.479,737.9,01.18,0.508
2015-07-27 02:17:00,1780E-3,5C000000,-0724,0822,12421,026.0,045.4,0.479,737.9,01.18,0.508
2015-07-27 02:18:00,1660E-3,5C000000,-0724,0822,12242,026.0,045.4,0.480,737.8,01.18,0.508
2015-07-27 02:19:00,1654E-3,5C000000,-0724,0823,12269,026.0,045.4,0.479,737.9,01.18,0.508
2015-07-27 02:20:00,1603E-3,5C000000,-0724,0822,12280,026.0,045.4,0.479,737.9,01.18,0.508
2015-07-27 02:21:00,1584E-3,5C000000,-0724,0823,12249,026.0,045.4,0.480,737.9,01.18,0.508
2015-07-27 02:22:00,1726E-3,5C000000,-0724,0822,12214,026.0,045.4,0.479,737.9,01.18,0.508
2015-07-27 02:23:00,1472E-3,5C000000,-0724,0822,12292,026.0,045.4,0.479,737.9,01.18,0.508
2015-07-27 02:24:00,1587E-3,5C000000,-0724,0823,12305,026.0,045.4,0.480,737.8,01.18,0.508
2015-07-27 02:25:00,1643E-3,5C000000,-0724,0822,12334,026.0,045.4,0.479,737.9,01.18,0.508
2015-07-27 02:26:00,1650E-3,5C000000,-0724,0822,12300,026.0,045.4,0.479,737.9,01.18,0.508
2015-07-27 02:27:00,1679E-3,5C000000,-0724,0822,12319,026.0,045.4,0.480,737.9,01.18,0.508
2015-07-27 02:28:00,1761E-3,5C000000,-0724,0822,12264,026.0,045.4,0.479,737.9,01.18,0.508
2015-07-27 02:29:00,1665E-3,5C000000,-0724,0822,12248,026.0,045.4,0.479,737.9,01.18,0.508
2015-07-27 02:30:00,1510E-3,5C000000,-0724,0822,12312,026.0,045.4,0.480,737.9,01.18,0.508
2015-07-27 02:31:00,1571E-3,5C000000,-0724,0822,12109,026.0,045.4,0.480,737.9,01.18,0.508
2015-07-27 02:32:00,1496E-3,5C000000,-0724,0822,12404,026.0,045.4,0.479,737.9,01.18,0.508
2015-07-27 02:33:00,1699E-3,5C000000,-0724,0822,12247,026.0,045.4,0.479,737.9,01.18,0.508
2015-07-27 02:34:00,1748E-3,5C000000,-0724,0822,12189,026.0,045.4,0.480,737.9,01.18,0.508
2015-07-27 02:35:00,1613E-3,5C000000,-0724,0822,12374,026.0,045.4,0.479,737.9,01.18,0.508
2015-07-27 02:36:00,1626E-3,5C000000,-0724,0821,12289,026.0,045.4,0.479,737.9,01.18,0.508
2015-07-27 02:37:00,1660E-3,5C000000,-0724,0822,12199,026.0,045.4,0.480,737.9,01.18,0.508
2015-07-27 02:38:00,1701E-3,5C000000,-0724,0823,12255,026.0,045.4,0.479,737.9,01.18,0.508
2015-07-27 02:39:00,1678E-3,5C000000,-0724,0823,12367,026.0,045.4,0.479,737.9,01.18,0.508
2015-07-27 02:40:00,1609E-3,5C000000,-0724,0822,12211,026.0,045.4,0.480,737.9,01.18,0.508
2015-07-27 02:41:00,1679E-3,5C000000,-0724,0823,12229,026.0,045.4,0.479,737.9,01.18,0.508
2015-07-27 02:42:00,1648E-3,5C000000,-0724,0822,12342,026.0,045.4,0.479,737.9,01.18,0.508
2015-07-27 02:43:00,1616E-3,5C000000,-0724,0823,12181,026.0,045.4,0.480,737.9,01.18,0.508
2015-07-27 02:44:00,1657E-3,5C000000,-0724,0822,12231,026.0,045.4,0.479,737.9,01.18,0.508
2015-07-27 02:45:00,1715E-3,5C000000,-0724,0822,12231,026.0,045.4,0.479,737.9,01.18,0.508
2015-07-27 02:46:00,1615E-3,5C000000,-0724,0823,12221,026.0,045.4,0.480,737.9,01.18,0.508
2015-07-27 02:47:00,1546E-3,5C000000,-0724,0823,12331,026.0,045.4,0.479,737.9,01.18,0.508
2015-07-27 02:48:00,1709E-3,5C000000,-0724,0823,12355,026.0,045.4,0.479,737.9,01.18,0.508
2015-07-27 02:49:00,1644E-3,5C000000,-0724,0822,12314,026.0,045.4,0.479,737.9,01.18,0.508
2015-07-27 02:50:00,1554E-3,5C000000,-0724,0823,12237,026.0,045.4,0.479,737.9,01.18,0.508
2015-07-27 02:51:00,1642E-3,5C000000,-0724,0823,12352,026.0,045.4,0.479,737.9,01.18,0.508
2015-07-27 02:52:00,1628E-3,5C000000,-0724,0823,12213,026.0,045.4,0.479,738.0,01.18,0.508
2015-07-27 02:53:00,1602E-3,5C000000,-0724,0822,12269,026.0,045.4,0.480,737.9,01.18,0.508
2015-07-27 02:54:00,1772E-3,5C000000,-0724,0823,12255,026.0,045.4,0.479,737.9,01.18,0.508
2015-07-27 02:55:00,1504E-3,5C000000,-0724,0823,12216,026.0,045.4,0.479,737.9,01.18,0.508
2015-07-27 02:56:00,1581E-3,5C000000,-0724,0824,12242,026.0,045.4,0.480,738.0,01.18,0.508
2015-07-27 02:57:00,1607E-3,5C000000,-0724,0822,12338,026.0,045.4,0.479,737.9,01.18,0.508
2015-07-27 02:58:00,1743E-3,5C000000,-0724,0822,12342,026.0,045.4,0.479,737.9,01.18,0.508
2015-07-27 02:59:00,1734E-3,5C000000,-0724,0823,12277,026.0,045.4,0.480,737.9,01.18,0.508
2015-07-27 03:00:00,1740E-3,5C000000,-0724,0823,12081,026.0,045.4,0.479,737.9,01.18,0.508
2015-07-27 03:01:00,1526E-3,5C000000,-0724,0822,12270,026.0,045.4,0.479,737.9,01.18,0.508
2015-07-27 03:02:00,1583E-3,5C000000,-0724,0822,12201,026.0,045.4,0.480,737.9,01.18,0.508
2015-07-27 03:03:00,1585E-3,5C000000,-0724,0823,12340,026.0,045.4,0.480,737.9,01.18,0.508
2015-07-27 03:04:00,1613E-3,5C000000,-0724,0822,12271,026.0,045.4,0.479,737.9,01.18,0.508
2015-07-27 03:05:00,1803E-3,5C000000,-0724,0823,12138,026.0,045.4,0.479,737.9,01.18,0.508
2015-07-27 03:06:00,1676E-3,5C000000,-0724,0823,12139,026.0,045.4,0.480,737.9,01.18,0.508
2015-07-27 03:07:00,1734E-3,5C000000,-0724,0823,12258,026.0,045.4,0.479,737.9,01.18,0.508
2015-07-27 03:08:00,1589E-3,5C000000,-0724,0822,12241,026.0,045.4,0.479,737.9,01.18,0.508
2015-07-27 03:09:00,1778E-3,5C000000,-0724,0822,12258,026.0,045.4,0.480,737.9,01.18,0.508
2015-07-27 03:10:00,1630E-3,5C000000,-0724,0822,12288,026.0,045.4,0.480,737.9,01.18,0.508
2015-07-27 03:11:00,1706E-3,5C000000,-0724,0822,12266,026.0,045.4,0.479,737.9,01.18,0.508
2015-07-27 03:12:00,1675E-3,5C000000,-0724,0822,12352,026.0,045.4,0.479,737.9,01.18,0.508
2015-07-27 03:13:00,1643E-3,5C000000,-0724,0823,12350,026.0,045.4,0.480,738.0,01.18,0.508
2015-07-27 03:14:00,1685E-3,5C000000,-0724,0822,12286,026.0,045.4,0.479,737.9,01.18,0.508
2015-07-27 03:15:00,1508E-3,5C000000,-0724,0822,12186,026.0,045.4,0.479,737.9,01.18,0.508
2015-07-27 03:16:00,1644E-3,5C000000,-0724,0822,12338,026.0,045.4,0.480,737.9,01.18,0.508
2015-07-27 03:17:00,1616E-3,5C000000,-0724,0823,12368,026.0,045.4,0.479,738.0,01.18,0.508
2015-07-27 03:18:00,1679E-3,5C000000,-0724,0822,12315,026.1,045.4,0.479,737.9,01.18,0.508
2015-07-27 03:19:00,1607E-3,5C000000,-0724,0823,12063,026.0,045.4,0.480,737.9,01.18,0.508
2015-07-27 03:20:00,1668E-3,5C000000,-0724,0822,12250,026.0,045.4,0.479,738.0,01.18,0.508
2015-07-27 03:21:00,1647E-3,5C000000,-0724,0822,12208,026.0,045.4,0.479,737.9,01.18,0.508
2015-07-27 03:22:00,1683E-3,5C000000,-0724,0822,12305,026.0,045.4,0.479,737.9,01.18,0.508
2015-07-27 03:23:00,1682E-3,5C000000,-0724,0822,12165,026.0,045.4,0.480,737.9,01.18,0.508
2015-07-27 03:24:00,1560E-3,5C000000,-0724,0822,12128,026.0,045.4,0.479,738.0,01.18,0.508
2015-07-27 03:25:00,1636E-3,5C000000,-0724,0823,12208,026.0,045.4,0.479,737.9,01.18,0.508
2015-07-27 03:26:00,1688E-3,5C000000,-0724,0823,12254,026.0,045.4,0.480,738.0,01.18,0.508
2015-07-27 03:27:00,1667E-3,5C000000,-0724,0823,12256,026.0,045.4,0.479,737.9,01.18,0.508
2015-07-27 03:28:00,1724E-3,5C000000,-0724,0823,12193,026.0,045.4,0.479,737.9,01.18,0.508
2015-07-27 03:29:00,1767E-3,5C000000,-0724,0822,12246,026.0,045.4,0.480,737.9,01.18,0.508
"read_dt","SO2 (ppb)","flags","PMT voltage (V)","lamp voltage (V)","lamp intensity (Hz)","internal temp (C)","react chamber temp (C)","sample flow (l/min)","pres (mmHg)","SO2 bkg (ppb)","SO2 coefficient"
2015-07-27 05:25:00,1748E-3,5C000004,-0724,0817,12225,024.0,028.8,0.488,738.2,01.18,0.508
2015-07-27 05:26:00,2295E-3,5C000004,-0724,0818,12219,024.0,029.5,0.487,738.2,01.18,0.508
2015-07-27 05:27:00,2186E-3,5C000004,-0724,0819,12225,024.1,030.4,0.487,738.2,01.18,0.508
2015-07-27 05:28:00,2114E-3,5C000004,-0724,0819,12224,024.2,031.4,0.486,738.3,01.18,0.508
2015-07-27 05:29:00,2138E-3,5C000004,-0724,0819,12381,024.3,032.4,0.486,738.2,01.18,0.508
2015-07-27 05:30:00,1947E-3,5C000004,-0724,0820,12359,024.4,033.4,0.486,738.2,01.18,0.508
2015-07-27 05:31:00,2094E-3,5C000004,-0724,0820,12246,024.5,034.3,0.485,738.3,01.18,0.508
2015-07-27 05:32:00,2254E-3,5C000004,-0724,0820,12311,024.6,035.3,0.484,738.3,01.18,0.508
2015-07-27 05:33:00,2288E-3,5C000004,-0724,0821,12311,024.7,036.1,0.484,738.3,01.18,0.508
2015-07-27 05:34:00,2207E-3,5C000004,-0724,0822,12442,024.9,037.0,0.484,738.3,01.18,0.508
2015-07-27 05:35:00,2105E-3,5C000004,-0724,0822,12288,025.0,037.8,0.483,738.3,01.18,0.508
2015-07-27 05:36:00,2032E-3,5C000004,-0724,0822,12306,025.1,038.6,0.483,738.3,01.18,0.508
2015-07-27 05:37:00,1854E-3,5C000004,-0724,0823,12192,025.3,039.3,0.482,738.3,01.18,0.508
2015-07-27 05:38:00,1899E-3,5C000004,-0724,0822,12344,025.4,040.0,0.482,738.3,01.18,0.508
2015-07-27 05:39:00,1969E-3,5C000004,-0724,0824,12431,025.5,040.8,0.481,738.3,01.18,0.508
2015-07-27 05:40:00,1902E-3,5C000004,-0724,0824,12233,025.6,041.4,0.481,738.3,01.18,0.508
2015-07-27 05:41:00,1873E-3,5C000004,-0724,0824,12375,025.8,042.1,0.481,738.3,01.18,0.508
2015-07-27 05:42:00,1860E-3,5C000004,-0724,0824,12171,025.9,042.7,0.480,738.3,01.18,0.508
2015-07-27 05:43:00,1712E-3,5C000000,-0724,0824,12242,026.1,043.3,0.480,738.3,01.18,0.508
2015-07-27 05:44:00,1826E-3,5C000000,-0724,0824,12186,026.2,043.8,0.479,738.3,01.18,0.508
2015-07-27 05:45:00,1950E-3,5C000000,-0724,0825,12309,026.4,044.4,0.479,738.3,01.18,0.508
2015-07-27 05:46:00,1891E-3,5C000000,-0724,0825,12171,026.5,045.0,0.479,738.3,01.18,0.508
2015-07-27 05:47:00,1849E-3,5C000000,-0724,0825,12184,026.6,045.5,0.478,738.3,01.18,0.508
2015-07-27 05:48:00,1683E-3,5C000000,-0724,0824,12274,026.8,045.7,0.479,738.3,01.18,0.508
2015-07-27 05:49:00,1726E-3,5C000000,-0724,0825,12182,026.9,045.6,0.479,738.3,01.18,0.508
2015-07-27 05:50:00,1663E-3,5C000000,-0724,0824,12167,027.0,045.5,0.478,738.3,01.18,0.508
2015-07-27 05:51:00,1881E-3,5C000000,-0724,0825,12346,027.2,045.5,0.478,738.3,01.18,0.508
2015-07-27 05:52:00,1662E-3,5C000000,-0724,0825,12225,027.3,045.6,0.477,738.3,01.18,0.508
2015-07-27 05:53:00,1620E-3,5C000000,-0724,0825,12163,027.5,045.6,0.478,738.2,01.18,0.508
2015-07-27 05:54:00,1713E-3,5C000000,-0724,0825,12303,027.6,045.5,0.477,738.2,01.18,0.508
2015-07-27 05:55:00,1808E-3,5C000000,-0724,0825,12398,027.7,045.5,0.477,738.2,01.18,0.508
2015-07-27 05:56:00,1638E-3,5C000000,-0724,0825,12205,027.8,045.5,0.477,738.2,01.18,0.508
2015-07-27 05:57:00,1660E-3,5C000000,-0724,0824,12315,028.0,045.5,0.477,738.2,01.18,0.508
2015-07-27 05:58:00,1730E-3,5C000000,-0724,0824,12435,028.1,045.5,0.476,738.2,01.18,0.508
2015-07-27 05:59:00,1596E-3,5C000000,-0724,0824,12279,028.2,045.5,0.476,738.1,01.18,0.508
2015-07-27 06:00:00,1547E-3,5C000000,-0724,0824,12254,028.3,045.5,0.476,738.1,01.18,0.508
2015-07-27 06:01:00,1697E-3,5C000000,-0724,0824,12181,028.5,045.6,0.476,738.1,01.18,0.508
2015-07-27 06:02:00,1638E-3,5C000000,-0724,0824,12327,028.6,045.5,0.476,738.1,01.18,0.508
2015-07-27 06:03:00,1735E-3,5C000000,-0724,0825,12136,028.7,045.5,0.475,738.1,01.18,0.508
2015-07-27 06:04:00,1705E-3,5C000000,-0724,0823,12241,028.8,045.5,0.475,738.1,01.18,0.508
2015-07-27 06:05:00,1743E-3,5C000000,-0724,0825,12347,028.9,045.5,0.475,738.1,01.18,0.508
2015-07-27 06:06:00,1614E-3,5C000000,-0724,0824,12242,029.1,045.6,0.475,738.1,01.18,0.508
2015-07-27 06:07:00,1660E-3,5C000000,-0724,0824,12249,029.2,045.5,0.475,738.1,01.18,0.508
2015-07-27 06:08:00,1693E-3,5C000000,-0724,0824,12295,029.3,045.5,0.474,738.1,01.18,0.508
2015-07-27 06:09:00,1606E-3,5C000000,-0724,0825,12310,029.4,045.5,0.474,738.1,01.18,0.508
2015-07-27 06:10:00,1578E-3,5C000000,-0724,0824,12226,029.5,045.5,0.474,738.1,01.18,0.508
2015-07-27 06:11:00,1640E-3,5C000000,-0724,0824,12328,029.6,045.5,0.474,738.2,01.18,0.508
2015-07-27 06:12:00,1580E-3,5C000000,-0724,0824,12279,029.7,045.5,0.474,738.1,01.18,0.508
2015-07-27 06:13:00,1672E-3,5C000000,-0724,0824,12288,029.8,045.5,0.474,738.1,01.18,0.508